SCP
0 0 0 0 0 0 0 0 0 0 0 0 0 0 0 0 0 0 0 0 0 0 0 0 0 0 0 0 0 0 0 0 0 0 0 0 0 0 0 0 0 0 0
0 0 0 0 0 0 0 0 0 0 0 0 0 0 0 0 0 0 0 0 0 0 0 0 0 0 0 0 0 0 0 0 0 0 0 0 0 0 0 0 0 0 0
0 0 0 0 0 0 0 0 0 0 0 0 0 0 0 0 0 0 0 0 0 0 0 0 0 0 0 0 0 0 0 0 0 0 0 0 0 0 0 0 0 0 0
0 0 0 0 0 0 0 0 0 0 0 0 0 0 0 0 0 0 0 0 0 0 0 0 0 0 0 0 0 0 0 0 0 0 0 0 0 0 0 0 0 0 0
0 0 0 0 0 0 0 0 0 0 0 0 0 0 0 0 0 0 0 0 0 0 0 0 0 0 0 0 0 0 0 0 0 0 0 0 0 0 0 0 0 0 0
0 0 0 0 0 1 1 0 0 0 0 0 0 0 0 0 0 0 0 0 0 0 0 0 0 0 0 0 0 0 0 0 0 0 0 0 0 0 0 0 0 0 0
0 0 0 0 1 1 0 0 0 0 0 0 0 0 0 0 0 0 0 0 0 0 0 0 0 0 0 0 0 0 0 0 0 0 0 0 0 0 0 0 0 0 0
0 0 0 0 0 1 0 0 0 0 0 0 0 0 0 0 0 0 0 0 0 0 0 0 0 0 0 0 0 0 0 0 0 0 0 0 0 0 0 0 0 0 0
0 0 0 0 0 0 0 0 0 0 0 0 0 0 0 0 0 0 0 0 0 0 0 0 0 0 0 0 0 0 0 0 0 0 0 0 0 0 0 0 0 0 0
0 0 0 0 0 0 0 0 0 0 0 0 0 0 0 0 0 0 0 0 0 0 0 0 0 0 0 0 0 0 0 0 0 0 0 0 0 0 0 0 0 0 0
0 0 0 0 0 0 0 0 0 0 0 0 0 0 0 0 0 0 0 0 0 0 0 0 0 0 0 0 0 0 0 0 0 0 0 0 0 0 0 0 0 0 0
0 0 0 0 0 0 0 0 0 0 0 0 0 0 0 0 0 0 0 0 0 0 0 0 0 0 0 0 0 0 0 0 0 0 0 0 0 0 0 0 0 0 0
0 0 0 0 0 0 0 0 0 0 0 0 0 0 0 0 0 0 0 0 0 0 0 0 0 0 0 0 0 0 0 0 0 0 0 0 0 0 0 0 0 0 0
0 0 0 0 0 0 0 0 0 0 0 0 0 0 0 0 0 0 0 0 0 0 0 0 0 0 0 0 0 0 0 0 0 0 0 0 0 0 0 0 0 0 0
0 0 0 0 0 0 0 0 0 0 0 0 0 0 0 0 0 0 0 0 0 0 0 0 0 0 0 0 0 0 0 0 0 0 0 0 0 0 0 0 0 0 0
0 0 0 0 0 0 0 0 0 0 0 0 0 0 0 0 0 0 0 0 0 0 0 0 0 0 0 0 0 0 0 0 0 0 0 0 0 0 0 0 0 0 0
0 0 0 0 0 0 0 0 0 0 0 0 0 0 0 0 0 0 0 0 0 0 0 0 0 0 0 0 0 0 0 0 0 0 0 0 0 0 0 0 0 0 0
0 0 0 0 0 0 0 0 0 0 0 0 0 0 0 0 0 0 0 0 0 0 0 0 0 0 0 0 0 0 0 0 0 0 0 0 0 0 0 0 0 0 0
0 0 0 0 0 0 0 0 0 0 0 0 0 0 0 0 0 0 0 0 0 0 0 0 0 0 0 0 0 0 0 0 0 0 0 0 0 0 0 0 0 0 0
0 0 0 0 0 0 0 0 0 0 0 0 0 0 0 0 0 0 0 0 0 0 0 0 0 0 0 0 0 0 0 0 0 0 0 0 -0 -0 -0 -0 0 0 0
0 0 0 0 0 0 0 0 0 0 0 0 0 0 0 0 0 0 0 0 0 0 0 0 0 0 0 0 0 0 0 0 0 -0 -0 -0 0 0 0 0 0 0 0
0 0 -0 -0 0 0 0 0 0 0 0 0 0 0 0 0 0 0 0 0 0 0 0 0 0 0 0 0 0 0 0 0 -0 -0 0 0 0 0 0 0 0 0 0
-0 0 0 0 0 0 0 0 0 0 0 0 0 0 0 0 0 0 0 0 0 0 0 0 0 0 0 0 0 0 0 0 0 0 -0 0 0 0 0 0 0 -0 -0
-0 0 0 0 0 0 -0 -0 -0 -0 0 0 0 0 0 0 0 0 0 0 0 0 0 0 0 0 -0 -0 -0 0 0 0 0 0 -0 0 0 0 0 0 -0 -0 -0
-0 -0 -0 -0 -0 -0 -0 -0 0 0 0 0 0 0 0 0 0 0 0 0 0 0 0 0 -0 -0 -0 -0 -0 0 0 0 0 0 -0 0 0 0 0 -0 -0 -0 -0
-0 -0 -0 -0 -0 -0 0 0 0 0 0 0 0 0 0 0 0 0 0 0 0 0 0 0 0 0 0 0 0 0 0 0 0 0 0 0 0 0 -0 -0 0 0 0
Wind_Speed_500mb
22 24 26 31 43 52 51 48 51 51 51 57 56 59 58 51 45 40 35 43 36 29 28 24 23 24 21 23 26 27 26 24 23 23 23 21 22 21 20 21 20 20 23
27 28 25 26 40 51 55 52 55 58 58 57 58 59 59 59 54 51 48 45 42 35 33 34 32 31 29 24 23 25 23 21 22 24 23 27 28 27 27 30 31 22 28
37 35 35 33 44 51 70 62 68 66 60 63 63 61 61 58 54 50 46 45 44 43 42 38 34 37 33 27 24 22 17 22 27 26 39 50 52 58 40 45 41 33 28
38 42 43 42 41 49 69 83 72 67 61 62 65 69 64 60 57 53 49 46 44 49 50 46 44 36 37 35 34 31 32 38 37 28 26 24 20 16 25 23 26 30 41
42 45 48 44 43 52 66 76 76 66 69 71 67 68 68 66 61 56 45 51 53 51 52 49 48 40 36 31 22 29 34 39 40 41 38 33 30 33 37 37 41 41 44
44 45 48 49 46 52 66 75 67 65 77 70 66 76 72 47 44 52 55 54 60 60 56 57 56 45 43 39 38 39 46 47 44 44 42 42 42 40 43 43 44 51 55
41 43 48 50 58 60 59 67 70 73 65 67 64 64 55 48 43 42 50 60 61 62 60 62 64 64 57 54 50 50 51 55 53 50 48 51 47 46 44 52 55 55 58
44 43 45 47 61 65 56 64 66 69 68 73 76 63 28 33 48 55 64 67 62 62 57 62 64 71 68 65 65 65 59 60 60 53 50 47 45 48 54 53 58 60 61
45 45 47 50 62 56 54 69 73 64 69 73 87 53 40 34 60 45 48 57 59 57 65 68 69 72 71 69 73 69 70 60 50 42 39 42 46 52 58 60 63 64 65
44 43 51 56 51 63 66 67 64 61 68 76 74 78 53 42 43 26 31 43 51 52 55 58 60 45 49 45 38 40 45 34 37 38 36 43 51 55 55 58 60 60 57
37 43 48 57 54 62 67 67 74 69 72 79 91 86 72 42 60 46 42 39 42 41 49 48 41 39 45 39 36 31 30 39 35 39 46 49 51 54 58 53 51 54 59
30 34 44 52 60 55 69 71 72 69 80 85 90 88 69 66 61 56 45 57 51 43 42 43 45 35 36 27 27 28 29 37 41 40 39 41 43 47 50 53 56 60 65
28 32 42 51 57 58 63 63 74 72 80 68 84 89 94 69 57 63 56 71 62 48 39 44 39 32 31 26 23 24 34 32 34 37 38 39 43 48 53 57 61 65 69
23 27 35 49 55 54 55 54 56 53 46 65 72 59 60 60 58 58 61 71 52 37 39 34 37 29 22 21 19 26 27 29 33 36 40 44 47 53 58 63 67 71 71
21 26 31 38 44 50 47 45 46 37 47 38 52 53 58 52 45 46 46 62 52 30 33 33 26 24 21 17 19 23 26 30 35 40 45 48 52 57 62 65 66 67 69
19 23 28 34 40 44 45 50 57 44 48 46 38 37 38 38 36 34 38 41 32 22 23 28 23 17 14 18 20 25 30 35 39 43 49 52 56 60 62 62 67 70 71
26 28 28 35 37 43 43 59 71 63 58 60 56 47 45 38 35 34 28 22 17 16 17 26 22 16 14 19 22 29 35 39 42 46 52 55 57 58 59 62 64 65 64
39 42 45 45 58 61 56 54 67 63 63 55 48 42 46 36 32 33 28 23 21 19 16 16 13 12 16 22 27 32 40 47 49 50 57 59 58 58 63 62 64 64 60
73 79 79 75 71 65 65 58 55 55 54 55 52 49 47 38 35 32 25 19 16 12 8 4 2 9 17 27 35 38 44 52 56 55 59 53 57 63 55 55 54 51 57
76 72 74 77 74 67 60 60 60 58 55 54 47 44 42 36 31 26 22 18 15 12 12 10 12 18 24 32 41 48 49 56 63 62 59 63 75 77 58 54 51 58 64
79 75 74 74 72 67 61 55 54 54 49 45 44 37 36 33 32 25 22 20 16 16 13 15 20 27 33 39 45 52 61 67 70 57 63 80 82 75 64 62 67 69 71
75 75 72 69 66 63 54 49 46 46 42 38 37 34 32 28 24 20 18 18 20 22 21 24 25 29 35 42 50 55 59 60 59 61 84 93 76 70 69 82 88 91 84
63 63 62 58 58 55 45 42 39 37 34 32 30 27 24 21 19 16 14 15 16 17 19 22 28 33 38 45 53 58 57 62 65 74 76 94 68 70 84 86 97 87 61
53 52 51 50 48 47 39 35 30 27 25 22 20 18 17 16 15 16 15 17 19 22 27 30 33 39 44 46 50 54 62 69 74 72 65 86 74 94 106 104 84 66 69
44 43 42 39 36 36 30 25 20 18 18 16 15 13 12 13 16 17 19 21 25 27 32 37 40 41 43 47 51 59 61 65 75 61 64 74 79 112 104 79 57 71 91
35 33 32 29 27 26 23 18 15 14 12 11 13 15 16 16 17 20 24 28 35 38 40 43 46 49 50 49 49 51 54 59 64 77 58 83 86 84 93 69 65 96 96
Wind_Direction_500mb
244 230 240 238 226 231 217 220 226 217 212 212 214 212 212 213 213 214 209 210 214 227 226 226 223 213 208 212 210 210 211 209 212 216 219 221 224 231 237 244 254 270 276
253 244 234 231 227 226 220 216 227 226 220 218 219 219 220 218 220 220 220 217 219 224 238 232 227 225 221 221 218 214 209 214 217 229 235 238 243 247 258 258 259 263 268
249 245 227 232 229 230 227 225 246 228 227 223 222 222 220 221 221 226 229 227 222 221 232 237 236 230 225 222 206 197 200 232 231 234 247 249 258 258 248 257 260 250 257
255 245 232 227 237 232 221 226 218 220 225 227 223 225 224 226 227 229 231 231 228 224 223 233 241 239 236 216 212 210 202 216 222 225 238 245 242 222 211 260 275 261 271
253 242 233 235 234 233 229 223 212 219 227 230 228 231 233 229 226 225 227 228 229 227 224 229 236 236 237 244 229 205 212 222 237 244 256 266 263 267 269 273 280 280 287
248 242 233 224 226 230 232 219 223 228 220 226 232 229 222 212 207 216 221 229 229 231 226 229 232 223 226 221 206 205 232 239 244 256 265 268 271 274 277 275 277 281 282
244 242 234 225 225 227 225 231 233 222 213 226 220 217 218 224 239 236 237 235 232 229 229 229 231 225 214 207 202 210 224 243 249 260 266 274 272 277 268 279 279 277 278
239 237 231 230 223 227 229 224 230 220 215 219 213 199 178 190 223 237 223 232 229 230 217 210 212 221 223 225 216 222 228 241 247 255 271 273 276 280 282 281 284 286 289
244 234 226 224 227 226 226 219 219 216 218 217 217 197 169 211 201 200 202 205 206 217 214 199 199 202 212 212 218 224 239 237 245 256 264 273 279 281 282 285 288 291 294
246 237 228 224 228 227 230 224 221 222 216 207 211 209 222 215 181 170 188 192 199 195 202 198 196 203 212 209 217 236 238 237 252 262 269 277 283 286 287 291 294 295 294
247 238 230 225 229 225 233 228 226 222 220 217 206 216 213 200 184 175 176 181 193 190 195 197 200 205 215 216 217 230 245 261 265 275 284 289 290 292 295 297 298 298 297
246 242 231 225 227 231 227 226 228 223 220 220 224 217 198 193 192 202 199 186 192 187 198 206 207 202 209 221 236 245 266 278 287 293 297 297 296 295 298 299 300 300 299
241 235 226 223 218 217 225 226 219 225 225 225 215 207 206 212 218 215 206 185 182 188 192 197 202 209 220 225 247 274 280 294 295 292 291 295 299 300 300 298 297 295 294
230 228 222 214 219 210 224 216 221 215 229 210 205 201 208 218 218 214 213 200 184 177 190 196 204 216 227 247 272 288 289 284 287 293 297 298 300 301 300 301 302 302 302
218 213 211 200 196 199 189 185 199 213 189 215 204 212 218 218 211 208 210 202 206 166 194 204 207 216 235 264 279 277 281 289 294 295 297 300 303 303 305 307 307 305 302
180 185 184 187 180 185 184 177 191 185 175 163 165 165 162 146 148 152 161 172 186 196 185 201 208 231 247 255 271 287 292 294 295 299 301 305 306 308 310 311 309 305 301
154 149 163 158 159 153 157 147 137 143 142 134 133 133 129 129 131 136 145 158 175 194 201 193 195 215 250 273 284 291 294 297 302 306 310 312 315 314 312 309 302 297 296
141 137 135 136 128 123 122 121 113 115 118 115 105 108 100 98 105 106 109 122 130 133 151 165 190 234 272 287 295 304 307 309 310 313 310 313 313 314 312 305 298 297 298
123 123 121 121 117 117 114 104 97 100 97 99 108 112 111 108 105 102 102 106 102 106 119 134 199 297 310 312 313 311 311 310 311 311 310 309 309 309 308 299 300 300 306
109 107 106 105 105 103 106 108 113 113 114 113 110 105 106 106 101 103 98 92 84 70 48 21 355 335 324 317 318 316 313 313 312 316 318 318 322 320 321 314 312 315 317
106 105 107 108 109 109 107 111 108 108 106 106 103 100 98 96 90 80 73 62 54 44 23 359 347 336 325 322 321 322 323 322 321 330 329 323 319 315 321 318 320 324 320
114 114 110 109 109 106 105 104 105 102 101 97 95 91 84 75 71 61 50 37 26 20 6 355 338 328 325 327 328 327 326 322 327 325 322 319 318 317 322 324 324 327 326
112 109 108 107 101 98 96 92 88 89 90 89 86 81 74 66 55 43 30 18 7 356 351 340 330 331 332 332 329 326 319 316 310 314 324 314 317 316 324 313 319 322 324
108 105 105 102 101 98 96 92 88 86 81 78 71 64 55 46 31 14 8 1 354 353 348 343 336 335 335 330 322 315 314 313 312 320 333 307 317 319 320 317 317 319 320
104 103 100 98 96 95 92 93 92 87 77 67 58 46 28 12 357 356 351 346 342 341 342 342 339 333 330 329 323 315 319 312 316 316 330 317 317 319 317 321 313 317 320
106 105 104 103 103 102 96 85 73 63 53 40 25 13 0 351 339 344 346 340 340 337 339 336 334 333 328 325 321 315 315 315 320 318 319 314 312 321 316 309 300 311 314
Wind_Speed_850mb
22 24 26 31 43 52 51 48 51 51 51 57 56 59 58 51 45 40 35 43 36 29 28 24 23 24 21 23 26 27 26 24 23 23 23 21 22 21 20 21 20 20 23
27 28 25 26 40 51 55 52 55 58 58 57 58 59 59 59 54 51 48 45 42 35 33 34 32 31 29 24 23 25 23 21 22 24 23 27 28 27 27 30 31 22 28
37 35 35 33 44 51 70 62 68 66 60 63 63 61 61 58 54 50 46 45 44 43 42 38 34 37 33 27 24 22 17 22 27 26 39 50 52 58 40 45 41 33 28
38 42 43 42 41 49 69 83 72 67 61 62 65 69 64 60 57 53 49 46 44 49 50 46 44 36 37 35 34 31 32 38 37 28 26 24 20 16 25 23 26 30 41
42 45 48 44 43 52 66 76 76 66 69 71 67 68 68 66 61 56 45 51 53 51 52 49 48 40 36 31 22 29 34 39 40 41 38 33 30 33 37 37 41 41 44
44 45 48 49 46 52 66 75 67 65 77 70 66 76 72 47 44 52 55 54 60 60 56 57 56 45 43 39 38 39 46 47 44 44 42 42 42 40 43 43 44 51 55
41 43 48 50 58 60 59 67 70 73 65 67 64 64 55 48 43 42 50 60 61 62 60 62 64 64 57 54 50 50 51 55 53 50 48 51 47 46 44 52 55 55 58
44 43 45 47 61 65 56 64 66 69 68 73 76 63 28 33 48 55 64 67 62 62 57 62 64 71 68 65 65 65 59 60 60 53 50 47 45 48 54 53 58 60 61
45 45 47 50 62 56 54 69 73 64 69 73 87 53 40 34 60 45 48 57 59 57 65 68 69 72 71 69 73 69 70 60 50 42 39 42 46 52 58 60 63 64 65
44 43 51 56 51 63 66 67 64 61 68 76 74 78 53 42 43 26 31 43 51 52 55 58 60 45 49 45 38 40 45 34 37 38 36 43 51 55 55 58 60 60 57
37 43 48 57 54 62 67 67 74 69 72 79 91 86 72 42 60 46 42 39 42 41 49 48 41 39 45 39 36 31 30 39 35 39 46 49 51 54 58 53 51 54 59
30 34 44 52 60 55 69 71 72 69 80 85 90 88 69 66 61 56 45 57 51 43 42 43 45 35 36 27 27 28 29 37 41 40 39 41 43 47 50 53 56 60 65
28 32 42 51 57 58 63 63 74 72 80 68 84 89 94 69 57 63 56 71 62 48 39 44 39 32 31 26 23 24 34 32 34 37 38 39 43 48 53 57 61 65 69
23 27 35 49 55 54 55 54 56 53 46 65 72 59 60 60 58 58 61 71 52 37 39 34 37 29 22 21 19 26 27 29 33 36 40 44 47 53 58 63 67 71 71
21 26 31 38 44 50 47 45 46 37 47 38 52 53 58 52 45 46 46 62 52 30 33 33 26 24 21 17 19 23 26 30 35 40 45 48 52 57 62 65 66 67 69
19 23 28 34 40 44 45 50 57 44 48 46 38 37 38 38 36 34 38 41 32 22 23 28 23 17 14 18 20 25 30 35 39 43 49 52 56 60 62 62 67 70 71
26 28 28 35 37 43 43 59 71 63 58 60 56 47 45 38 35 34 28 22 17 16 17 26 22 16 14 19 22 29 35 39 42 46 52 55 57 58 59 62 64 65 64
39 42 45 45 58 61 56 54 67 63 63 55 48 42 46 36 32 33 28 23 21 19 16 16 13 12 16 22 27 32 40 47 49 50 57 59 58 58 63 62 64 64 60
73 79 79 75 71 65 65 58 55 55 54 55 52 49 47 38 35 32 25 19 16 12 8 4 2 9 17 27 35 38 44 52 56 55 59 53 57 63 55 55 54 51 57
76 72 74 77 74 67 60 60 60 58 55 54 47 44 42 36 31 26 22 18 15 12 12 10 12 18 24 32 41 48 49 56 63 62 59 63 75 77 58 54 51 58 64
79 75 74 74 72 67 61 55 54 54 49 45 44 37 36 33 32 25 22 20 16 16 13 15 20 27 33 39 45 52 61 67 70 57 63 80 82 75 64 62 67 69 71
75 75 72 69 66 63 54 49 46 46 42 38 37 34 32 28 24 20 18 18 20 22 21 24 25 29 35 42 50 55 59 60 59 61 84 93 76 70 69 82 88 91 84
63 63 62 58 58 55 45 42 39 37 34 32 30 27 24 21 19 16 14 15 16 17 19 22 28 33 38 45 53 58 57 62 65 74 76 94 68 70 84 86 97 87 61
53 52 51 50 48 47 39 35 30 27 25 22 20 18 17 16 15 16 15 17 19 22 27 30 33 39 44 46 50 54 62 69 74 72 65 86 74 94 106 104 84 66 69
44 43 42 39 36 36 30 25 20 18 18 16 15 13 12 13 16 17 19 21 25 27 32 37 40 41 43 47 51 59 61 65 75 61 64 74 79 112 104 79 57 71 91
35 33 32 29 27 26 23 18 15 14 12 11 13 15 16 16 17 20 24 28 35 38 40 43 46 49 50 49 49 51 54 59 64 77 58 83 86 84 93 69 65 96 96
Wind_Direction_850mb
244 230 240 238 226 231 217 220 226 217 212 212 214 212 212 213 213 214 209 210 214 227 226 226 223 213 208 212 210 210 211 209 212 216 219 221 224 231 237 244 254 270 276
253 244 234 231 227 226 220 216 227 226 220 218 219 219 220 218 220 220 220 217 219 224 238 232 227 225 221 221 218 214 209 214 217 229 235 238 243 247 258 258 259 263 268
249 245 227 232 229 230 227 225 246 228 227 223 222 222 220 221 221 226 229 227 222 221 232 237 236 230 225 222 206 197 200 232 231 234 247 249 258 258 248 257 260 250 257
255 245 232 227 237 232 221 226 218 220 225 227 223 225 224 226 227 229 231 231 228 224 223 233 241 239 236 216 212 210 202 216 222 225 238 245 242 222 211 260 275 261 271
253 242 233 235 234 233 229 223 212 219 227 230 228 231 233 229 226 225 227 228 229 227 224 229 236 236 237 244 229 205 212 222 237 244 256 266 263 267 269 273 280 280 287
248 242 233 224 226 230 232 219 223 228 220 226 232 229 222 212 207 216 221 229 229 231 226 229 232 223 226 221 206 205 232 239 244 256 265 268 271 274 277 275 277 281 282
244 242 234 225 225 227 225 231 233 222 213 226 220 217 218 224 239 236 237 235 232 229 229 229 231 225 214 207 202 210 224 243 249 260 266 274 272 277 268 279 279 277 278
239 237 231 230 223 227 229 224 230 220 215 219 213 199 178 190 223 237 223 232 229 230 217 210 212 221 223 225 216 222 228 241 247 255 271 273 276 280 282 281 284 286 289
244 234 226 224 227 226 226 219 219 216 218 217 217 197 169 211 201 200 202 205 206 217 214 199 199 202 212 212 218 224 239 237 245 256 264 273 279 281 282 285 288 291 294
246 237 228 224 228 227 230 224 221 222 216 207 211 209 222 215 181 170 188 192 199 195 202 198 196 203 212 209 217 236 238 237 252 262 269 277 283 286 287 291 294 295 294
247 238 230 225 229 225 233 228 226 222 220 217 206 216 213 200 184 175 176 181 193 190 195 197 200 205 215 216 217 230 245 261 265 275 284 289 290 292 295 297 298 298 297
246 242 231 225 227 231 227 226 228 223 220 220 224 217 198 193 192 202 199 186 192 187 198 206 207 202 209 221 236 245 266 278 287 293 297 297 296 295 298 299 300 300 299
241 235 226 223 218 217 225 226 219 225 225 225 215 207 206 212 218 215 206 185 182 188 192 197 202 209 220 225 247 274 280 294 295 292 291 295 299 300 300 298 297 295 294
230 228 222 214 219 210 224 216 221 215 229 210 205 201 208 218 218 214 213 200 184 177 190 196 204 216 227 247 272 288 289 284 287 293 297 298 300 301 300 301 302 302 302
218 213 211 200 196 199 189 185 199 213 189 215 204 212 218 218 211 208 210 202 206 166 194 204 207 216 235 264 279 277 281 289 294 295 297 300 303 303 305 307 307 305 302
180 185 184 187 180 185 184 177 191 185 175 163 165 165 162 146 148 152 161 172 186 196 185 201 208 231 247 255 271 287 292 294 295 299 301 305 306 308 310 311 309 305 301
154 149 163 158 159 153 157 147 137 143 142 134 133 133 129 129 131 136 145 158 175 194 201 193 195 215 250 273 284 291 294 297 302 306 310 312 315 314 312 309 302 297 296
141 137 135 136 128 123 122 121 113 115 118 115 105 108 100 98 105 106 109 122 130 133 151 165 190 234 272 287 295 304 307 309 310 313 310 313 313 314 312 305 298 297 298
123 123 121 121 117 117 114 104 97 100 97 99 108 112 111 108 105 102 102 106 102 106 119 134 199 297 310 312 313 311 311 310 311 311 310 309 309 309 308 299 300 300 306
109 107 106 105 105 103 106 108 113 113 114 113 110 105 106 106 101 103 98 92 84 70 48 21 355 335 324 317 318 316 313 313 312 316 318 318 322 320 321 314 312 315 317
106 105 107 108 109 109 107 111 108 108 106 106 103 100 98 96 90 80 73 62 54 44 23 359 347 336 325 322 321 322 323 322 321 330 329 323 319 315 321 318 320 324 320
114 114 110 109 109 106 105 104 105 102 101 97 95 91 84 75 71 61 50 37 26 20 6 355 338 328 325 327 328 327 326 322 327 325 322 319 318 317 322 324 324 327 326
112 109 108 107 101 98 96 92 88 89 90 89 86 81 74 66 55 43 30 18 7 356 351 340 330 331 332 332 329 326 319 316 310 314 324 314 317 316 324 313 319 322 324
108 105 105 102 101 98 96 92 88 86 81 78 71 64 55 46 31 14 8 1 354 353 348 343 336 335 335 330 322 315 314 313 312 320 333 307 317 319 320 317 317 319 320
104 103 100 98 96 95 92 93 92 87 77 67 58 46 28 12 357 356 351 346 342 341 342 342 339 333 330 329 323 315 319 312 316 316 330 317 317 319 317 321 313 317 320
106 105 104 103 103 102 96 85 73 63 53 40 25 13 0 351 339 344 346 340 340 337 339 336 334 333 328 325 321 315 315 315 320 318 319 314 312 321 316 309 300 311 314